Location: Aragoneses
(41.0275°N, 4.3847°W)
Time: 01:59:40
(UTC+00:00)

Cosmos 967 Rocket - Pass Details

Date: 11 December 2025
Orbit: 941 x 995 km, 65.8° (Epoch: 14 January)

Event Time Altitude Azimuth Distance (km) Brightness Sun altitude
Rises 18:52:58 0° 203° (SSW) 3,626 8.0 -22.5°
Reaches altitude 10° 18:55:30 10° 202° (SSW) 2,691 7.2 -23.0°
Maximum altitude 19:01:47 75° 118° (ESE) 1,007 4.4 -24.2°
Enters shadow 19:03:37 48° 46° (NE) 1,250 4.7 -24.5°
